Date String (YYYY-MM-DD hh:mm:ss) UTC,Instrument flags,Ambient pressure (hPa),Sample flow (lpm),Bypass flow (lpm),Sample temperature (°C),Ambient temperature (°C),ASC tube jacket temperature (°C),LED temperature (°C),Box temperature (°C),Sample RH (%),Span deviation,Mass concentration (μg/m³),Mass concentration (μg/m³),Mass concentration (μg/m³)
DateTimeUTC,F1_M11,P_M11,Q1_M11,Q2_M11,T1_M11,T2_M11,T3_M11,T4_M11,T5_M11,U1_M11,ZSPAN_M11,X0_M11,X2_M11,X1_M11
2021-10-03 19:00:00,,0831.0,4.99,0.00,29.5,27.2,00.0,38.7,31.2,10.6,0001.1,0007.54,0003.46,0003.18
2021-10-03 19:01:00,,0830.9,4.99,0.00,29.5,27.6,00.0,38.6,31.3,10.3,0000.0,0007.69,0003.47,0003.17
2021-10-03 19:02:00,,0830.9,5.02,0.00,29.6,27.9,00.0,38.6,31.4,10.5,0000.0,0007.05,0003.46,0003.16
2021-10-03 19:03:00,,0830.8,5.00,0.00,29.6,28.2,00.0,38.6,31.4,10.2,0000.0,0007.08,0003.45,0003.16
2021-10-03 19:04:00,,0830.8,5.00,0.00,29.7,28.5,00.0,38.6,31.5,10.4,0000.0,0006.56,0003.44,0003.16
2021-10-03 19:05:00,,0830.9,4.99,0.00,29.7,28.6,00.0,38.6,31.6,10.5,0000.0,0006.76,0003.43,0003.15
2021-10-03 19:06:00,,0830.8,5.01,0.00,29.8,28.8,00.0,38.7,31.6,10.2,0000.0,0006.75,0003.41,0003.15
2021-10-03 19:07:00,,0830.8,5.00,0.00,29.8,28.9,00.0,38.7,31.7,10.0,0000.0,0006.88,0003.44,0003.16
2021-10-03 19:08:00,,0830.8,5.01,0.00,29.9,29.0,00.0,38.7,31.8,10.0,0000.0,0006.98,0003.48,0003.18
2021-10-03 19:09:00,,0830.8,5.00,0.00,29.9,29.1,00.0,38.7,31.8,09.9,0000.0,0007.03,0003.50,0003.19
2021-10-03 19:10:00,,0830.8,4.99,0.00,29.9,27.8,00.0,38.8,31.4,10.1,0000.0,0007.14,0003.51,0003.20
2021-10-03 19:11:00,,0830.8,5.01,0.00,29.7,26.0,00.0,38.7,30.9,10.2,0000.5,0007.38,0003.53,0003.21
2021-10-03 19:12:00,,0830.7,5.01,0.00,29.6,26.0,00.0,38.7,30.9,10.6,0000.0,0007.36,0003.55,0003.22
2021-10-03 19:13:00,,0830.8,4.99,0.00,29.5,26.4,00.0,38.7,31.0,10.2,0000.0,0007.02,0003.56,0003.23
2021-10-03 19:14:00,,0830.8,5.00,0.00,29.5,26.9,00.0,38.6,31.1,10.3,0000.0,0006.57,0003.54,0003.24
2021-10-03 19:15:00,,0830.8,5.00,0.00,29.5,27.4,00.0,38.6,31.2,10.3,0000.0,0006.54,0003.55,0003.24
2021-10-03 19:16:00,,0830.7,5.01,0.00,29.5,27.7,00.0,38.6,31.3,10.6,0000.0,0006.11,0003.56,0003.25
2021-10-03 19:17:00,,0830.6,4.99,0.00,29.6,28.0,00.0,38.6,31.3,10.3,0000.0,0005.80,0003.55,0003.25
2021-10-03 19:18:00,,0830.7,4.99,0.00,29.6,28.3,00.0,38.6,31.4,10.2,0000.0,0005.58,0003.52,0003.26
2021-10-03 19:19:00,,0830.6,5.00,0.00,29.6,28.5,00.0,38.6,31.5,10.3,0000.0,0005.46,0003.52,0003.26
2021-10-03 19:20:00,,0830.6,5.00,0.00,29.7,28.7,00.0,38.6,31.6,10.5,0000.0,0005.44,0003.51,0003.26
2021-10-03 19:21:00,,0830.6,5.01,0.00,29.7,28.8,00.0,38.6,31.6,10.2,0000.0,0005.48,0003.53,0003.25
2021-10-03 19:22:00,,0830.6,5.00,0.00,29.8,29.0,00.0,38.7,31.7,10.2,0000.0,0005.36,0003.55,0003.25
2021-10-03 19:23:00,,0830.6,5.01,0.00,29.8,29.1,00.0,38.7,31.8,10.1,0000.0,0005.20,0003.55,0003.25
2021-10-03 19:24:00,,0830.6,5.00,0.00,29.9,29.1,00.0,38.7,31.8,09.9,0000.0,0005.11,0003.55,0003.25
2021-10-03 19:25:00,,0830.6,5.01,0.00,29.9,27.7,00.0,38.8,31.4,10.0,0000.0,0005.14,0003.56,0003.26
2021-10-03 19:26:00,,0830.6,5.00,0.00,29.7,26.0,00.0,38.7,30.9,09.8,0001.9,0005.29,0003.58,0003.27
2021-10-03 19:27:00,,0830.5,5.00,0.00,29.5,26.0,00.0,38.7,30.9,10.3,0001.8,0005.76,0003.59,0003.28
2021-10-03 19:28:00,,0830.6,5.00,0.00,29.5,26.5,00.0,38.7,31.0,10.5,0002.2,0006.51,0003.61,0003.28
2021-10-03 19:29:00,,0830.5,5.01,0.00,29.5,27.0,00.0,38.6,31.1,10.6,0001.8,0006.61,0003.63,0003.28
2021-10-03 19:30:00,,0830.5,5.00,0.00,29.5,27.4,00.0,38.6,31.1,10.6,0001.6,0006.59,0003.59,0003.27
2021-10-03 19:31:00,,0830.5,5.00,0.00,29.5,27.7,00.0,38.6,31.2,10.2,0001.8,0007.29,0003.62,0003.27
2021-10-03 19:32:00,,0830.5,4.98,0.00,29.5,28.1,00.0,38.6,31.3,10.3,0001.1,0007.43,0003.64,0003.28
2021-10-03 19:33:00,,0830.5,5.00,0.00,29.6,28.3,00.0,38.6,31.4,10.3,0001.2,0007.49,0003.65,0003.28
2021-10-03 19:34:00,,0830.5,5.02,0.00,29.6,28.5,00.0,38.6,31.5,10.3,0000.3,0007.78,0003.64,0003.28
2021-10-03 19:35:00,,0830.5,4.99,0.00,29.7,28.7,00.0,38.6,31.6,10.2,0000.0,0007.99,0003.66,0003.28
2021-10-03 19:36:00,,0830.5,4.99,0.00,29.7,28.8,00.0,38.6,31.6,10.5,0000.0,0008.04,0003.64,0003.28
2021-10-03 19:37:00,,0830.5,5.00,0.00,29.8,29.0,00.0,38.7,31.7,10.1,0000.0,0008.02,0003.64,0003.28
2021-10-03 19:38:00,,0830.5,5.01,0.00,29.8,29.1,00.0,38.7,31.7,10.3,0000.0,0007.91,0003.67,0003.28
2021-10-03 19:39:00,,0830.4,5.00,0.00,29.9,28.4,00.0,38.7,31.6,10.0,0000.0,0007.59,0003.68,0003.28
2021-10-03 19:40:00,,0830.4,5.00,0.00,29.7,26.5,00.0,38.7,31.1,10.3,0000.0,0007.61,0003.69,0003.28
2021-10-03 19:41:00,,0830.4,5.01,0.00,29.6,25.9,00.0,38.7,30.9,10.3,0000.0,0007.59,0003.71,0003.29
2021-10-03 19:42:00,,0830.4,5.00,0.00,29.5,26.3,00.0,38.6,31.0,10.2,0000.0,0007.45,0003.70,0003.29
2021-10-03 19:43:00,,0830.4,4.99,0.00,29.5,26.8,00.0,38.6,31.1,10.3,0000.8,0007.94,0003.67,0003.29
2021-10-03 19:44:00,,0830.4,5.00,0.00,29.5,27.2,00.0,38.6,31.1,10.2,0000.8,0007.82,0003.65,0003.28
2021-10-03 19:45:00,,0830.4,5.00,0.00,29.5,27.6,00.0,38.6,31.2,10.2,0001.2,0007.54,0003.65,0003.28
2021-10-03 19:46:00,,0830.4,5.00,0.00,29.5,28.0,00.0,38.5,31.3,10.4,0001.5,0007.34,0003.64,0003.28
2021-10-03 19:47:00,,0830.5,5.01,0.00,29.6,28.2,00.0,38.6,31.4,10.2,0000.0,0007.24,0003.64,0003.28
2021-10-03 19:48:00,,0830.4,4.99,0.00,29.6,28.5,00.0,38.6,31.5,10.0,0000.0,0007.23,0003.62,0003.27
2021-10-03 19:49:00,,0830.4,5.00,0.00,29.7,28.7,00.0,38.6,31.5,10.3,0000.0,0006.92,0003.58,0003.27
2021-10-03 19:50:00,,0830.4,4.99,0.00,29.7,28.8,00.0,38.6,31.6,10.4,0000.0,0006.83,0003.57,0003.27
2021-10-03 19:51:00,,0830.4,5.00,0.00,29.8,29.0,00.0,38.6,31.7,10.5,0000.0,0006.76,0003.54,0003.27
2021-10-03 19:52:00,,0830.4,5.00,0.00,29.8,29.1,00.0,38.7,31.7,10.6,0000.0,0006.66,0003.52,0003.26
2021-10-03 19:53:00,,0830.4,5.01,0.00,29.8,28.2,00.0,38.7,31.5,10.4,0000.0,0006.33,0003.51,0003.26
2021-10-03 19:54:00,,0830.4,4.99,0.00,29.7,26.2,00.0,38.7,31.0,10.6,0000.0,0005.04,0003.50,0003.26
2021-10-03 19:55:00,,0830.4,5.01,0.00,29.5,25.9,00.0,38.7,30.9,10.9,0000.0,0005.02,0003.48,0003.24
2021-10-03 19:56:00,,0830.3,4.99,0.00,29.5,26.3,00.0,38.6,31.0,10.7,0000.0,0005.01,0003.49,0003.25
2021-10-03 19:57:00,,0830.4,5.01,0.00,29.4,26.8,00.0,38.6,31.0,10.9,0000.0,0005.88,0003.49,0003.25
2021-10-03 19:58:00,,0830.4,5.01,0.00,29.4,27.2,00.0,38.6,31.1,10.5,0000.7,0006.22,0003.50,0003.26
2021-10-03 19:59:00,,0830.3,5.00,0.00,29.5,27.6,00.0,38.5,31.2,10.6,0001.7,0006.67,0003.52,0003.26
